Time,TemperatureF,DewpointF,PressureIn,WindDirection,WindDirectionDegrees,WindSpeedMPH,WindSpeedGustMPH,Humidity,HourlyPrecipIn,Conditions,Clouds,dailyrainin,SoftwareType,DateUTC
2013-02-21 00:00:00,4.0,1.0,-100.00,NW,319,16.0,22.0,89,-99.99,,,-99.99,,2013-02-21 07:00:00,
2013-02-21 00:42:00,4.0,1.0,-100.00,NW,319,16.0,22.0,89,-99.99,,,-99.99,,2013-02-21 07:42:00,
2013-02-21 00:52:00,4.0,1.0,-100.00,NW,319,16.0,22.0,89,-99.99,,,-99.99,,2013-02-21 07:52:00,
2013-02-21 01:00:00,4.0,1.0,-100.00,NW,316,22.0,28.0,89,-99.99,,,-99.99,,2013-02-21 08:00:00,
2013-02-21 01:42:00,4.0,1.0,-100.00,NW,316,22.0,28.0,89,-99.99,,,-99.99,,2013-02-21 08:42:00,
2013-02-21 01:52:00,4.0,1.0,-100.00,NW,316,22.0,28.0,89,-99.99,,,-99.99,,2013-02-21 08:52:00,
2013-02-21 02:00:00,4.0,1.0,-100.00,NW,319,23.0,34.0,89,-99.99,,,-99.99,,2013-02-21 09:00:00,
2013-02-21 02:42:00,4.0,1.0,-100.00,NW,319,23.0,34.0,89,-99.99,,,-99.99,,2013-02-21 09:42:00,
2013-02-21 02:52:00,4.0,1.0,-100.00,NW,319,23.0,34.0,89,-99.99,,,-99.99,,2013-02-21 09:52:00,
2013-02-21 03:00:00,4.0,1.0,-100.00,NW,317,28.0,40.0,89,-99.99,,,-99.99,,2013-02-21 10:00:00,
2013-02-21 03:41:00,4.0,1.0,-100.00,NW,317,28.0,40.0,89,-99.99,,,-99.99,,2013-02-21 10:41:00,
2013-02-21 03:51:00,4.0,1.0,-100.00,NW,317,28.0,40.0,89,-99.99,,,-99.99,,2013-02-21 10:51:00,
2013-02-21 04:00:00,4.0,1.0,-100.00,NW,324,21.0,33.0,89,-99.99,,,-99.99,,2013-02-21 11:00:00,
2013-02-21 04:41:00,4.0,1.0,-100.00,NW,324,21.0,33.0,89,-99.99,,,-99.99,,2013-02-21 11:41:00,
2013-02-21 04:51:00,4.0,1.0,-100.00,NW,324,21.0,33.0,89,-99.99,,,-99.99,,2013-02-21 11:51:00,
2013-02-21 05:00:00,3.0,1.0,-100.00,NNW,330,18.0,28.0,89,-99.99,,,-99.99,,2013-02-21 12:00:00,
2013-02-21 05:43:00,3.0,1.0,-100.00,NNW,330,18.0,28.0,89,-99.99,,,-99.99,,2013-02-21 12:43:00,
2013-02-21 05:52:00,3.0,1.0,-100.00,NNW,330,18.0,28.0,89,-99.99,,,-99.99,,2013-02-21 12:52:00,
2013-02-21 06:00:00,3.0,0.0,-100.00,NW,324,20.0,31.0,89,-99.99,,,-99.99,,2013-02-21 13:00:00,
2013-02-21 06:42:00,3.0,0.0,-100.00,NW,324,20.0,31.0,89,-99.99,,,-99.99,,2013-02-21 13:42:00,
2013-02-21 06:52:00,3.0,0.0,-100.00,NW,324,20.0,31.0,89,-99.99,,,-99.99,,2013-02-21 13:52:00,
2013-02-21 07:00:00,3.0,0.0,-100.00,NW,319,25.0,40.0,89,-99.99,,,-99.99,,2013-02-21 14:00:00,
2013-02-21 07:42:00,3.0,0.0,-100.00,NW,319,25.0,40.0,89,-99.99,,,-99.99,,2013-02-21 14:42:00,
2013-02-21 07:52:00,3.0,0.0,-100.00,NW,319,25.0,40.0,89,-99.99,,,-99.99,,2013-02-21 14:52:00,
2013-02-21 08:00:00,3.0,1.0,-100.00,NW,324,23.0,39.0,88,-99.99,,,-99.99,,2013-02-21 15:00:00,
2013-02-21 08:42:00,3.0,1.0,-100.00,NW,324,23.0,39.0,88,-99.99,,,-99.99,,2013-02-21 15:42:00,
2013-02-21 08:52:00,3.0,1.0,-100.00,NW,324,23.0,39.0,88,-99.99,,,-99.99,,2013-02-21 15:52:00,
2013-02-21 09:00:00,4.0,1.0,-100.00,NNW,328,18.0,32.0,87,-99.99,,,-99.99,,2013-02-21 16:00:00,
2013-02-21 09:42:00,4.0,1.0,-100.00,NNW,328,18.0,32.0,87,-99.99,,,-99.99,,2013-02-21 16:42:00,
2013-02-21 09:52:00,4.0,1.0,-100.00,NNW,328,18.0,32.0,87,-99.99,,,-99.99,,2013-02-21 16:52:00,
2013-02-21 10:00:00,5.0,2.0,-100.00,NW,324,17.0,33.0,86,-99.99,,,-99.99,,2013-02-21 17:00:00,
2013-02-21 10:42:00,5.0,2.0,-100.00,NW,324,17.0,33.0,86,-99.99,,,-99.99,,2013-02-21 17:42:00,
2013-02-21 10:52:00,5.0,2.0,-100.00,NW,324,17.0,33.0,86,-99.99,,,-99.99,,2013-02-21 17:52:00,
2013-02-21 11:00:00,6.0,2.0,-100.00,NW,323,15.0,24.0,85,-99.99,,,-99.99,,2013-02-21 18:00:00,
2013-02-21 11:42:00,6.0,2.0,-100.00,NW,323,15.0,24.0,85,-99.99,,,-99.99,,2013-02-21 18:42:00,
2013-02-21 11:52:00,6.0,2.0,-100.00,NW,323,15.0,24.0,85,-99.99,,,-99.99,,2013-02-21 18:52:00,
2013-02-21 12:00:00,6.0,3.0,-100.00,NW,326,17.0,28.0,84,-99.99,,,-99.99,,2013-02-21 19:00:00,
2013-02-21 12:42:00,6.0,3.0,-100.00,NW,326,17.0,28.0,84,-99.99,,,-99.99,,2013-02-21 19:42:00,
2013-02-21 12:52:00,6.0,3.0,-100.00,NW,326,17.0,28.0,84,-99.99,,,-99.99,,2013-02-21 19:52:00,
2013-02-21 13:00:00,6.0,3.0,-100.00,NW,322,18.0,29.0,84,-99.99,,,-99.99,,2013-02-21 20:00:00,
2013-02-21 13:42:00,6.0,3.0,-100.00,NW,322,18.0,29.0,84,-99.99,,,-99.99,,2013-02-21 20:42:00,
2013-02-21 13:52:00,6.0,3.0,-100.00,NW,322,18.0,29.0,84,-99.99,,,-99.99,,2013-02-21 20:52:00,
2013-02-21 14:00:00,7.0,3.0,-100.00,NW,322,14.0,25.0,83,-99.99,,,-99.99,,2013-02-21 21:00:00,
2013-02-21 14:42:00,7.0,3.0,-100.00,NW,322,14.0,25.0,83,-99.99,,,-99.99,,2013-02-21 21:42:00,
2013-02-21 14:52:00,7.0,3.0,-100.00,NW,322,14.0,25.0,83,-99.99,,,-99.99,,2013-02-21 21:52:00,
2013-02-21 15:00:00,7.0,3.0,-100.00,NNW,330,11.0,25.0,84,-99.99,,,-99.99,,2013-02-21 22:00:00,
2013-02-21 15:42:00,7.0,3.0,-100.00,NNW,330,11.0,25.0,84,-99.99,,,-99.99,,2013-02-21 22:42:00,
2013-02-21 15:52:00,7.0,3.0,-100.00,NNW,330,11.0,25.0,84,-99.99,,,-99.99,,2013-02-21 22:52:00,
2013-02-21 16:00:00,6.0,3.0,-100.00,NNW,341,10.0,20.0,86,-99.99,,,-99.99,,2013-02-21 23:00:00,
2013-02-21 16:42:00,6.0,3.0,-100.00,NNW,341,10.0,20.0,86,-99.99,,,-99.99,,2013-02-21 23:42:00,
2013-02-21 16:52:00,6.0,3.0,-100.00,NNW,341,10.0,20.0,86,-99.99,,,-99.99,,2013-02-21 23:52:00,
2013-02-21 17:00:00,6.0,3.0,-100.00,NW,323,12.0,19.0,87,-99.99,,,-99.99,,2013-02-22 00:00:00,
2013-02-21 17:42:00,6.0,3.0,-100.00,NW,323,12.0,19.0,87,-99.99,,,-99.99,,2013-02-22 00:42:00,
2013-02-21 17:52:00,6.0,3.0,-100.00,NW,323,12.0,19.0,87,-99.99,,,-99.99,,2013-02-22 00:52:00,
2013-02-21 18:00:00,5.0,2.0,-100.00,NW,312,11.0,20.0,88,-99.99,,,-99.99,,2013-02-22 01:00:00,
2013-02-21 18:42:00,5.0,2.0,-100.00,NW,312,11.0,20.0,88,-99.99,,,-99.99,,2013-02-22 01:42:00,
2013-02-21 18:52:00,5.0,2.0,-100.00,NW,312,11.0,20.0,88,-99.99,,,-99.99,,2013-02-22 01:52:00,
2013-02-21 19:00:00,4.0,2.0,-100.00,NNW,329,10.0,20.0,89,-99.99,,,-99.99,,2013-02-22 02:00:00,
2013-02-21 19:42:00,4.0,2.0,-100.00,NNW,329,10.0,20.0,89,-99.99,,,-99.99,,2013-02-22 02:42:00,
2013-02-21 19:52:00,4.0,2.0,-100.00,NNW,329,10.0,20.0,89,-99.99,,,-99.99,,2013-02-22 02:52:00,
2013-02-21 20:00:00,4.0,2.0,-100.00,NW,317,11.0,21.0,89,-99.99,,,-99.99,,2013-02-22 03:00:00,
2013-02-21 20:42:00,4.0,2.0,-100.00,NW,317,11.0,21.0,89,-99.99,,,-99.99,,2013-02-22 03:42:00,
2013-02-21 20:52:00,4.0,2.0,-100.00,NW,317,11.0,21.0,89,-99.99,,,-99.99,,2013-02-22 03:52:00,
2013-02-21 21:00:00,4.0,1.0,-100.00,NW,318,14.0,22.0,89,-99.99,,,-99.99,,2013-02-22 04:00:00,
2013-02-21 21:42:00,4.0,1.0,-100.00,NW,318,14.0,22.0,89,-99.99,,,-99.99,,2013-02-22 04:42:00,
2013-02-21 21:52:00,4.0,1.0,-100.00,NW,318,14.0,22.0,89,-99.99,,,-99.99,,2013-02-22 04:52:00,
2013-02-21 22:00:00,3.0,1.0,-100.00,NW,315,9.0,15.0,89,-99.99,,,-99.99,,2013-02-22 05:00:00,
2013-02-21 22:42:00,3.0,1.0,-100.00,NW,315,9.0,15.0,89,-99.99,,,-99.99,,2013-02-22 05:42:00,
2013-02-21 22:52:00,3.0,1.0,-100.00,NW,315,9.0,15.0,89,-99.99,,,-99.99,,2013-02-22 05:52:00,
2013-02-21 23:00:00,2.0,0.0,-100.00,WNW,300,11.0,16.0,89,-99.99,,,-99.99,,2013-02-22 06:00:00,
2013-02-21 23:42:00,2.0,0.0,-100.00,WNW,300,11.0,16.0,89,-99.99,,,-99.99,,2013-02-22 06:42:00,
2013-02-21 23:52:00,2.0,0.0,-100.00,WNW,300,11.0,16.0,89,-99.99,,,-99.99,,2013-02-22 06:52:00,